COSMOS 2251 DEB, 53093

Orbit data source: Space-Track

COSMOS 2251 DEB, 53093 is space debris in LEO originally from a launch on Wed, 16 Jun 1993 UTC launched from the Plesetsk Missile And Space Complex (PKMTR). The debris from Iridium 33, an American commercial communications satellite, has been tracked extensively since its accidental collision with the defunct Russian satellite Cosmos 2251 in 2009. This event, occurring at high speed in low Earth orbit (LEO), generated thousands of pieces of space debris, significantly increasing the risk of further collisions. The Iridium 33 debris cloud has impacted space traffic management and orbital debris mitigation strategies, making it a subject of ongoing study in space situational awareness.

Loading next visibility...
Identifier
53093, 1993-036BYP
Orbit
LEO
Country
Flag of CISCIS
Related business
Manufacturer
Unknown
Mission
Spacecraft
Bus & Motor
Unknown
Mass
Unknown
Launch date (UTC)
1993-06-16 (33 years ago)
Launch vehicle
Unknown
Launch site
Plesetsk Missile And Space Complex (PKMTR)
Object type
Payload
Rocket body
Debris
Shape & HBR
Unknown shape, 0.1 m
Radar Cross Section
Small (<0.1 m²)

Expand to show TLE details & history
Last TLE update: 9 hours ago

TLE from 9 hours ago
0 COSMOS 2251 DEB
1 53093U 93036BYP 26121.18899614  .00003151  00000-0  95291-3 0  9998
2 53093  74.0376  42.8215 0019580  96.4188 263.9199 14.42662258197365
Epoch: 2026-05-01T04:32Z
TLE epoch observation values (Epoch: 2026-05-01T04:32:09.266Z)
Latitude
-0°
Longitude
115.65806°
Altitude
753.841 km
Speed
7.477 km/s
True Right ascension
02h 51m 17s
True Declination
0° 00' 00"
Sunlit
Object was in daylight at epoch
Visualization orbit readout
Latitude
Unknown
Longitude
Unknown
Altitude
Unknown
Speed
Unknown
Apparent Right ascension
Unknown
Apparent Declination
Unknown
Sunlit
N/A
Visualization observer readout
Local Sidereal Time
20:54:07
Azimuth
Unknown
Elevation
Unknown
Doppler factor
Unknown
Orbital elements
Apogee altitude
761.284 km
Perigee altitude
733.381 km
Semi-major axis
7,125.469 km
Eccentricity
0.00196
Inclination
74.0376°
RAAN
42.8215°
Arg. of periapsis
96.4188°
True anomaly
263.69685°
Mean anomaly
263.9199°
Eccentric anomaly
263.80837°
Mean motion
3.60847 °/min
Orbital period
99.77 mins
BSTAR
0.00095291
Loading maneuver chart data...
Computing Atmospheric mass density...
Loading historical data...
Loading historical data...
Loading historical data...
Loading historical data...
Loading historical data...
Loading historical data...
Loading historical data...

Documentation

Showing up to 5 results
|